EW3770 Weather Reports


time (UTC)temp
C
wind
direction
speed
KPH
gust
KPH
rain 1hr
cm
rain 24hr
cm
rain mn
cm
humidity
%
barometer
mb
20260507142703 12 360 6.4 16.1 0.00 0.00 0.00 45 1027.4
20260507141803 12 360 6.4 14.5 0.00 0.00 0.00 44 1027.4
20260507140903 12 360 6.4 16.1 0.00 0.00 0.00 43 1027.4
20260507140003 12 360 6.4 14.5 0.00 0.00 0.00 45 1027.4
20260507135424 12 360 6.4 14.5 0.00 0.00 0.00 46 1027.4
20260507134503 11 360 6.4 16.1 0.00 0.00 0.00 51 1027.4
20260507133603 11 360 6.4 16.1 0.00 0.00 0.00 52 1027.4
20260507132724 10 360 6.4 14.5 0.00 0.00 0.00 56 1027.4
20260507131824 10 360 6.4 14.5 0.00 0.00 0.00 58 1027.4
20260507130903 10 360 8.0 16.1 0.00 0.00 0.00 57 1027.4
20260507130024 10 360 6.4 16.1 0.00 0.00 0.00 57 1027.4
20260507125403 10 360 6.4 12.9 0.00 0.00 0.00 56 1027.4
20260507124503 10 360 4.8 12.9 0.00 0.00 0.00 56 1027.4
20260507123603 10 360 4.8 14.5 0.00 0.00 0.00 54 1027.4
20260507122705 10 360 4.8 9.7 0.00 0.00 0.00 52 1027.4
20260507121803 10 360 4.8 9.7 0.00 0.00 0.00 52 1027.4
20260507120903 10 360 4.8 16.1 0.00 0.00 0.00 51 1027.4
20260507120024 10 360 4.8 9.7 0.00 0.00 0.00 52 1027.4
20260507115403 10 360 4.8 9.7 0.00 0.00 0.00 55 1027.4
20260507114503 10 360 6.4 14.5 0.00 0.00 0.00 57 1027.4
20260507113603 10 360 4.8 12.9 0.00 0.00 0.00 58 1027.4
20260507112703 10 360 6.4 14.5 0.00 0.00 0.00 58 1027.4
20260507111803 10 360 4.8 12.9 0.00 0.00 0.00 59 1027.4
20260507110903 10 360 4.8 12.9 0.00 0.00 0.00 58 1027.4
20260507110003 10 360 6.4 14.5 0.00 0.00 0.00 58 1027.4
20260507105403 10 360 4.8 14.5 0.00 0.00 0.00 57 1027.4
20260507104524 10 360 4.8 14.5 0.00 0.00 0.00 57 1027.4
20260507103624 10 360 4.8 16.1 0.00 0.00 0.00 55 1027.4
20260507102703 10 360 6.4 12.9 0.00 0.00 0.00 55 1027.4
20260507101803 10 360 4.8 14.5 0.00 0.03 0.00 53 1027.4
20260507100903 11 360 6.4 14.5 0.00 0.03 0.00 52 1027.4
20260507100004 11 360 4.8 14.5 0.00 0.03 0.00 51 1027.4
20260507095403 11 360 4.8 14.5 0.00 0.03 0.00 50 1027.4
20260507094504 11 360 4.8 9.7 0.00 0.03 0.00 51 1027.4
20260507093624 11 360 4.8 12.9 0.00 0.03 0.00 54 1027.4
20260507092724 11 360 4.8 12.9 0.00 0.03 0.00 54 1027.4
20260507091803 11 360 4.8 12.9 0.00 0.03 0.00 54 1027.4
20260507090904 11 360 3.2 9.7 0.00 0.03 0.00 52 1027.4
20260507090004 11 360 4.8 9.7 0.00 0.05 0.00 51 1027.4
20260507085403 11 360 4.8 9.7 0.00 0.05 0.00 50 1027.4
20260507084503 11 360 4.8 9.7 0.00 0.13 0.00 50 1027.4
20260507083604 11 360 4.8 9.7 0.00 0.23 0.00 49 1027.4
20260507082703 11 360 4.8 9.7 0.00 0.28 0.00 48 1027.4
20260507081803 11 360 4.8 14.5 0.00 0.28 0.00 47 1027.4
20260507080924 11 360 3.2 8.0 0.00 0.28 0.00 48 1027.4
20260507080004 11 360 3.2 8.0 0.00 0.28 0.00 48 1027.4
20260507075403 11 360 3.2 8.0 0.00 0.28 0.00 48 1027.4
20260507074504 11 360 3.2 8.0 0.00 0.28 0.00 49 1027.4
20260507073603 12 360 3.2 8.0 0.00 0.28 0.00 49 1027.4
20260507072724 12 360 3.2 9.7 0.00 0.28 0.00 48 1027.4
20260507071825 12 360 3.2 8.0 0.00 0.28 0.00 46 1027.4
20260507070903 12 360 3.2 9.7 0.00 0.28 0.00 45 1027.4
20260507070008 12 360 1.6 6.4 0.00 0.28 0.00 45 1027.4
20260507065403 12 360 1.6 6.4 0.00 0.28 0.00 44 1027.4
20260507064503 12 360 1.6 8.0 0.00 0.28 0.00 43 1027.4
20260507063603 12 360 1.6 8.0 0.00 0.28 0.00 43 1027.4
20260507062724 12 360 1.6 8.0 0.00 0.28 0.00 43 1027.4
20260507061803 12 360 1.6 4.8 0.00 0.28 0.00 43 1027.4
20260507060903 12 360 0.0 4.8 0.00 0.28 0.00 42 1027.4
20260507060004 12 360 1.6 4.8 0.00 0.28 0.00 40 1027.4
20260507055403 12 360 1.6 4.8 0.00 0.28 0.28 40 1027.4
20260507054503 12 360 0.0 1.6 0.00 0.28 0.28 39 1027.4
20260507053624 12 360 0.0 1.6 0.00 0.28 0.28 39 1027.4
20260507052703 11 360 0.0 3.2 0.00 0.28 0.28 38 1027.4
20260507051824 11 0 0.0 0.0 0.00 0.28 0.28 40 1027.4
20260507050925 11 360 0.0 1.6 0.00 0.28 0.28 40 1027.4
20260507050003 11 360 0.0 1.6 0.00 0.28 0.28 39 1027.4
20260507045403 11 360 0.0 4.8 0.00 0.28 0.28 40 1027.4
20260507044503 12 360 0.0 4.8 0.00 0.28 0.28 37 1027.4
20260507043604 12 360 1.6 6.4 0.00 0.28 0.28 35 1027.4
20260507042703 12 360 3.2 8.0 0.00 0.28 0.28 35 1027.4
20260507041803 12 360 4.8 9.7 0.00 0.28 0.28 34 1027.4
20260507040903 12 360 3.2 8.0 0.00 0.28 0.28 35 1027.4
20260507040004 12 360 3.2 9.7 0.00 0.28 0.28 35 1027.4
20260507035403 12 360 3.2 12.9 0.00 0.28 0.28 35 1027.4
20260507034503 13 360 3.2 9.7 0.00 0.28 0.28 34 1027.4
20260507033603 13 360 1.6 6.4 0.00 0.28 0.28 33 1027.4
20260507032724 13 360 1.6 6.4 0.00 0.28 0.28 33 1027.4
20260507031824 13 360 0.0 1.6 0.00 0.28 0.28 34 1027.4
20260507030924 14 0 0.0 0.0 0.00 0.28 0.28 33 1027.4
20260507030003 15 0 0.0 0.0 0.00 0.28 0.28 29 1027.4
20260507025403 15 0 0.0 0.0 0.00 0.28 0.28 29 1027.4
20260507024503 15 0 0.0 0.0 0.00 0.28 0.28 27 1027.4
20260507023603 16 0 0.0 0.0 0.00 0.28 0.28 28 1027.4
20260507022703 16 0 0.0 0.0 0.00 0.28 0.28 27 1027.4
20260507021824 16 360 0.0 1.6 0.00 0.28 0.28 25 1027.4
20260507020903 16 360 0.0 1.6 0.00 0.28 0.28 25 1027.4
20260507020003 16 360 1.6 6.4 0.00 0.28 0.28 24 1027.4
20260507015403 16 1 1.6 6.4 0.00 0.28 0.28 24 1027.4
20260507014503 16 5 1.6 8.0 0.00 0.28 0.28 23 1027.4
20260507013624 16 15 3.2 9.7 0.00 0.28 0.28 23 1027.4
20260507012703 17 28 3.2 12.9 0.00 0.28 0.28 23 1027.4
20260507011803 17 355 3.2 9.7 0.00 0.28 0.28 22 1027.4
20260507010903 17 360 3.2 11.3 0.00 0.28 0.28 23 1027.4
20260507010003 17 16 3.2 14.5 0.00 0.28 0.28 23 1027.4
20260507005424 17 29 4.8 14.5 0.00 0.28 0.28 22 1027.4
20260507004503 17 359 6.4 16.1 0.00 0.28 0.28 22 1027.4
20260507003624 17 356 8.0 19.3 0.00 0.28 0.28 23 1027.4
20260507002703 17 358 8.0 19.3 0.00 0.28 0.28 22 1027.4
20260507001803 17 353 4.8 17.7 0.00 0.28 0.28 22 1027.4
20260507000903 17 358 9.7 25.7 0.00 0.28 0.28 22 1027.4
20260507000004 17 349 6.4 16.1 0.00 0.28 0.28 22 1027.4
20260506235403 17 354 8.0 25.7 0.00 0.28 0.28 21 1027.4
20260506234503 17 330 6.4 20.9 0.00 0.28 0.28 23 1027.4
20260506233603 17 319 8.0 20.9 0.00 0.28 0.28 23 1027.4
20260506232703 17 349 9.7 20.9 0.00 0.28 0.28 23 1027.4
20260506231803 17 358 8.0 20.9 0.00 0.28 0.28 23 1027.4
20260506230903 17 360 8.0 22.5 0.00 0.28 0.28 23 1027.4
20260506230024 17 360 9.7 20.9 0.00 0.28 0.28 24 1027.4
20260506225403 17 360 11.3 25.7 0.00 0.28 0.28 23 1027.4
20260506224503 17 355 8.0 22.5 0.00 0.28 0.28 23 1027.4
20260506223603 17 359 9.7 29.0 0.00 0.28 0.28 24 1027.4
20260506222703 17 360 9.7 29.0 0.00 0.28 0.28 25 1027.4
20260506221824 17 360 11.3 29.0 0.00 0.28 0.28 24 1027.4
20260506220903 17 360 9.7 27.4 0.00 0.28 0.28 24 1027.4
20260506220003 17 360 9.7 22.5 0.00 0.28 0.28 23 1027.4
20260506215403 17 360 11.3 25.7 0.00 0.28 0.28 24 1027.4
20260506214503 17 360 11.3 25.7 0.00 0.28 0.28 25 1027.4
20260506213624 17 360 11.3 25.7 0.00 0.28 0.28 25 1027.4
20260506212724 17 360 11.3 29.0 0.00 0.28 0.28 25 1027.4
20260506211803 16 360 8.0 27.4 0.00 0.28 0.28 26 1027.4
20260506210903 16 360 11.3 27.4 0.00 0.28 0.28 28 1027.4
20260506210003 16 360 11.3 27.4 0.00 0.28 0.28 26 1027.4
20260506205424 16 360 11.3 30.6 0.00 0.28 0.28 28 1027.4
20260506204503 16 360 11.3 27.4 0.00 0.28 0.28 27 1027.4
20260506203603 16 360 11.3 22.5 0.00 0.28 0.28 26 1027.4
20260506202703 16 360 9.7 25.7 0.00 0.28 0.28 28 1027.4
20260506201803 16 360 12.9 29.0 0.00 0.28 0.28 25 1027.4
20260506200903 16 360 9.7 22.5 0.00 0.28 0.28 27 1027.4
20260506200024 15 360 11.3 22.5 0.00 0.28 0.28 26 1027.4
20260506195403 15 360 11.3 22.5 0.00 0.28 0.28 26 1027.4
20260506194503 15 360 14.5 29.0 0.00 0.28 0.28 26 1027.4
20260506193603 15 360 16.1 29.0 0.00 0.28 0.28 25 1027.4
20260506192724 15 360 11.3 27.4 0.00 0.28 0.28 24 1027.4
20260506191803 15 360 11.3 27.4 0.00 0.28 0.28 24 1027.4
20260506190903 15 360 12.9 27.4 0.00 0.28 0.28 26 1027.4
20260506190004 14 360 16.1 32.2 0.00 0.28 0.28 26 1027.4
20260506185403 14 360 12.9 32.2 0.00 0.28 0.28 26 1027.4
20260506184503 14 360 12.9 25.7 0.00 0.28 0.28 25 1027.4
20260506183604 13 360 12.9 33.8 0.00 0.28 0.28 28 1027.4
20260506182703 13 360 12.9 27.4 0.00 0.28 0.28 27 1027.4
20260506181803 13 360 12.9 27.4 0.00 0.28 0.28 23 1027.4
20260506180903 13 360 16.1 30.6 0.00 0.28 0.28 24 1027.4
20260506180024 13 360 12.9 33.8 0.00 0.28 0.28 28 1027.4
20260506175403 13 360 11.3 29.0 0.00 0.28 0.28 29 1027.4
20260506174503 13 360 14.5 30.6 0.00 0.28 0.28 28 1027.4
20260506173603 13 360 12.9 30.6 0.00 0.28 0.28 28 1027.4
20260506172703 12 360 14.5 32.2 0.00 0.28 0.28 26 1027.4
20260506171803 12 360 14.5 32.2 0.00 0.28 0.28 29 1027.4
20260506170903 12 360 16.1 29.0 0.00 0.28 0.28 26 1027.4
20260506170003 12 360 12.9 25.7 0.00 0.28 0.28 27 1027.4
20260506165403 12 360 12.9 27.4 0.00 0.28 0.28 30 1027.4
20260506164503 12 360 14.5 33.8 0.00 0.28 0.28 29 1027.4
20260506163603 12 360 14.5 27.4 0.00 0.28 0.28 29 1027.4
20260506162724 12 360 12.9 27.4 0.00 0.28 0.28 31 1027.4
20260506161803 12 360 16.1 32.2 0.00 0.28 0.28 33 1027.4
20260506160903 12 343 16.1 30.6 0.00 0.28 0.28 35 1027.4
20260506160003 12 324 14.5 30.6 0.00 0.28 0.28 36 1027.4
20260506155424 11 346 14.5 32.2 0.00 0.28 0.28 37 1027.4
20260506154503 11 359 14.5 30.6 0.00 0.28 0.28 36 1027.4
20260506153603 11 337 14.5 25.7 0.00 0.28 0.28 37 1027.4
20260506152703 11 327 14.5 25.7 0.00 0.28 0.28 39 1027.4
20260506151803 11 332 14.5 29.0 0.00 0.28 0.28 36 1027.4
20260506150903 11 342 12.9 25.7 0.00 0.28 0.28 41 1027.4
20260506150003 11 351 9.7 22.5 0.00 0.28 0.28 44 1027.4
20260506145403 11 350 9.7 20.9 0.00 0.28 0.28 44 1027.4
20260506144503 11 350 8.0 19.3 0.00 0.28 0.28 46 1027.4
20260506143603 11 346 4.8 12.9 0.00 0.28 0.28 48 1027.4